| time (UTC) | temp C | wind direction | speed KPH | gust KPH | rain 1hr cm | rain 24hr cm | rain mn cm | humidity % | barometer mb |
| 20260510192804 | 24 | 294 | 3.2 | 4.8 | 0.00 | 0.30 | 0.00 | 54 | 1012.3 |
| 20260510191804 | 25 | 334 | 3.2 | 8.0 | 0.00 | 0.30 | 0.00 | 53 | 1012.3 |
| 20260510191304 | 25 | 316 | 3.2 | 8.0 | 0.00 | 0.30 | 0.00 | 53 | 1012.5 |
| 20260510190805 | 25 | 325 | 3.2 | 14.5 | 0.00 | 0.30 | 0.00 | 53 | 1012.6 |
| 20260510190304 | 25 | 312 | 3.2 | 8.0 | 0.00 | 0.30 | 0.00 | 51 | 1012.5 |
| 20260510185805 | 26 | 336 | 1.6 | 9.7 | 0.00 | 0.30 | 0.00 | 52 | 1012.4 |
| 20260510185306 | 26 | 336 | 3.2 | 9.7 | 0.00 | 0.30 | 0.00 | 49 | 1012.6 |
| 20260510184804 | 26 | 283 | 1.6 | 4.8 | 0.00 | 0.30 | 0.00 | 49 | 1012.6 |
| 20260510184305 | 26 | 238 | 1.6 | 9.7 | 0.00 | 0.30 | 0.00 | 52 | 1012.6 |
| 20260510183804 | 25 | 309 | 3.2 | 9.7 | 0.00 | 0.30 | 0.00 | 54 | 1012.7 |
| 20260510183304 | 24 | 193 | 1.6 | 4.8 | 0.00 | 0.30 | 0.00 | 53 | 1012.6 |
| 20260510182804 | 24 | 267 | 1.6 | 9.7 | 0.00 | 0.30 | 0.00 | 52 | 1012.7 |
| 20260510182306 | 24 | 287 | 1.6 | 8.0 | 0.00 | 0.30 | 0.00 | 52 | 1012.6 |
| 20260510181305 | 25 | 296 | 3.2 | 4.8 | 0.00 | 0.30 | 0.00 | 50 | 1012.7 |
| 20260510180804 | 25 | 314 | 1.6 | 4.8 | 0.00 | 0.30 | 0.00 | 53 | 1012.6 |
| 20260510180304 | 25 | 293 | 0.0 | 4.8 | 0.00 | 0.30 | 0.00 | 50 | 1012.7 |
| 20260510175805 | 26 | 325 | 3.2 | 8.0 | 0.00 | 0.30 | 0.00 | 50 | 1012.7 |
| 20260510175306 | 26 | 319 | 3.2 | 8.0 | 0.00 | 0.30 | 0.00 | 53 | 1012.6 |
| 20260510174804 | 25 | 128 | 3.2 | 4.8 | 0.00 | 0.30 | 0.00 | 57 | 1012.7 |
| 20260510174304 | 25 | 282 | 3.2 | 4.8 | 0.00 | 0.30 | 0.00 | 52 | 1012.7 |
| 20260510173304 | 25 | 332 | 3.2 | 4.8 | 0.00 | 0.30 | 0.00 | 52 | 1012.6 |
| 20260510172805 | 25 | 313 | 1.6 | 8.0 | 0.00 | 0.30 | 0.00 | 55 | 1012.7 |
| 20260510171803 | 25 | 283 | 4.8 | 9.7 | 0.00 | 0.30 | 0.00 | 56 | 1012.7 |
| 20260510171306 | 25 | 203 | 1.6 | 9.7 | 0.00 | 0.30 | 0.00 | 58 | 1012.7 |
| 20260510170805 | 24 | 273 | 1.6 | 4.8 | 0.00 | 0.30 | 0.00 | 57 | 1012.8 |
| 20260510165306 | 23 | 179 | 0.0 | 4.8 | 0.00 | 0.30 | 0.00 | 62 | 1012.8 |
| 20260510164304 | 23 | 212 | 0.0 | 3.2 | 0.00 | 0.30 | 0.00 | 71 | 1012.9 |
| 20260510163804 | 22 | 183 | 1.6 | 4.8 | 0.00 | 0.30 | 0.00 | 65 | 1012.9 |
| 20260510163304 | 22 | 331 | 3.2 | 8.0 | 0.00 | 0.30 | 0.00 | 66 | 1013.0 |
| 20260510162804 | 22 | 328 | 3.2 | 9.7 | 0.00 | 0.30 | 0.00 | 64 | 1013.0 |
| 20260510162306 | 22 | 226 | 0.0 | 4.8 | 0.00 | 0.30 | 0.00 | 67 | 1013.0 |
| 20260510161804 | 22 | 315 | 1.6 | 4.8 | 0.00 | 0.30 | 0.00 | 68 | 1013.0 |
| 20260510161303 | 22 | 314 | 3.2 | 8.0 | 0.00 | 0.30 | 0.00 | 67 | 1013.0 |
| 20260510160805 | 21 | 91 | 1.6 | 4.8 | 0.00 | 0.30 | 0.00 | 71 | 1013.0 |
| 20260510160305 | 21 | 282 | 1.6 | 4.8 | 0.00 | 0.30 | 0.00 | 70 | 1013.1 |
| 20260510155804 | 21 | 309 | 1.6 | 4.8 | 0.00 | 0.30 | 0.00 | 70 | 1013.1 |
| 20260510155306 | 21 | 325 | 3.2 | 8.0 | 0.00 | 0.30 | 0.00 | 70 | 1013.2 |
| 20260510154804 | 21 | 236 | 1.6 | 4.8 | 0.00 | 0.30 | 0.00 | 75 | 1013.3 |
| 20260510153304 | 20 | 238 | 1.6 | 4.8 | 0.00 | 0.30 | 0.00 | 75 | 1013.4 |
| 20260510152804 | 20 | 179 | 3.2 | 8.0 | 0.00 | 0.30 | 0.00 | 79 | 1013.4 |
| 20260510152307 | 19 | 168 | 1.6 | 4.8 | 0.00 | 0.30 | 0.00 | 81 | 1013.5 |
| 20260510151804 | 18 | 249 | 3.2 | 4.8 | 0.00 | 0.30 | 0.00 | 82 | 1013.5 |
| 20260510151304 | 18 | 246 | 1.6 | 3.2 | 0.00 | 0.30 | 0.00 | 84 | 1013.5 |
| 20260510150804 | 18 | 259 | 1.6 | 4.8 | 0.00 | 0.30 | 0.00 | 85 | 1013.5 |
| 20260510145804 | 17 | 69 | 3.2 | 4.8 | 0.00 | 0.30 | 0.00 | 86 | 1013.5 |
| 20260510145306 | 16 | 186 | 1.6 | 4.8 | 0.00 | 0.30 | 0.00 | 86 | 1013.5 |
| 20260510144805 | 16 | 155 | 1.6 | 4.8 | 0.00 | 0.30 | 0.00 | 87 | 1013.5 |
| 20260510144304 | 15 | 319 | 1.6 | 4.8 | 0.00 | 0.30 | 0.00 | 87 | 1013.5 |
| 20260510143804 | 15 | 272 | 3.2 | 4.8 | 0.00 | 0.30 | 0.00 | 87 | 1013.5 |
| 20260510143304 | 15 | 274 | 1.6 | 3.2 | 0.00 | 0.30 | 0.00 | 88 | 1013.5 |
| 20260510142803 | 15 | 265 | 1.6 | 3.2 | 0.00 | 0.30 | 0.00 | 88 | 1013.7 |
| 20260510141804 | 15 | 170 | 1.6 | 4.8 | 0.00 | 0.30 | 0.00 | 88 | 1013.6 |
| 20260510141304 | 14 | 202 | 0.0 | 3.2 | 0.00 | 0.30 | 0.00 | 88 | 1013.6 |
| 20260510140804 | 13 | 214 | 0.0 | 4.8 | 0.00 | 0.30 | 0.00 | 88 | 1013.5 |
| 20260510140304 | 13 | 250 | 0.0 | 3.2 | 0.00 | 0.30 | 0.00 | 88 | 1013.6 |
| 20260510135805 | 13 | 250 | 0.0 | 1.6 | 0.00 | 0.30 | 0.00 | 88 | 1013.6 |
| 20260510135306 | 13 | 256 | 1.6 | 3.2 | 0.00 | 0.30 | 0.00 | 88 | 1013.5 |
| 20260510134305 | 13 | 323 | 0.0 | 3.2 | 0.00 | 0.30 | 0.00 | 88 | 1013.5 |
| 20260510133305 | 13 | 325 | 0.0 | 1.6 | 0.00 | 0.30 | 0.00 | 88 | 1013.4 |
| 20260510132804 | 13 | 325 | 0.0 | 0.0 | 0.00 | 0.30 | 0.00 | 88 | 1013.4 |
| 20260510132306 | 12 | 325 | 0.0 | 1.6 | 0.00 | 0.30 | 0.00 | 89 | 1013.6 |
| 20260510131804 | 12 | 325 | 0.0 | 1.6 | 0.00 | 0.30 | 0.00 | 88 | 1013.6 |
| 20260510131304 | 12 | 324 | 0.0 | 1.6 | 0.00 | 0.30 | 0.00 | 89 | 1013.6 |
| 20260510130805 | 12 | 324 | 0.0 | 1.6 | 0.00 | 0.30 | 0.00 | 89 | 1013.5 |
| 20260510130304 | 12 | 325 | 1.6 | 4.8 | 0.00 | 0.30 | 0.00 | 89 | 1013.6 |
| 20260510125804 | 12 | 149 | 0.0 | 1.6 | 0.00 | 0.30 | 0.00 | 88 | 1013.5 |
| 20260510125306 | 12 | 148 | 0.0 | 1.6 | 0.00 | 0.30 | 0.00 | 89 | 1013.3 |
| 20260510124305 | 12 | 148 | 0.0 | 1.6 | 0.00 | 0.30 | 0.00 | 89 | 1013.2 |
| 20260510123804 | 12 | 148 | 0.0 | 1.6 | 0.00 | 0.30 | 0.00 | 89 | 1013.2 |
| 20260510123304 | 12 | 148 | 0.0 | 1.6 | 0.00 | 0.30 | 0.00 | 89 | 1013.1 |
| 20260510122804 | 12 | 149 | 1.6 | 3.2 | 0.00 | 0.30 | 0.00 | 89 | 1012.9 |
| 20260510122306 | 12 | 355 | 0.0 | 1.6 | 0.00 | 0.30 | 0.00 | 89 | 1012.9 |
| 20260510121304 | 12 | 175 | 0.0 | 3.2 | 0.00 | 0.30 | 0.00 | 89 | 1013.1 |
| 20260510120804 | 12 | 250 | 0.0 | 3.2 | 0.00 | 0.30 | 0.00 | 89 | 1013.1 |
| 20260510120304 | 11 | 280 | 0.0 | 1.6 | 0.00 | 0.30 | 0.00 | 89 | 1013.1 |
| 20260510115804 | 11 | 280 | 0.0 | 1.6 | 0.00 | 0.30 | 0.00 | 89 | 1013.0 |
| 20260510115306 | 11 | 280 | 1.6 | 3.2 | 0.00 | 0.30 | 0.00 | 89 | 1012.9 |
| 20260510114804 | 11 | 280 | 0.0 | 1.6 | 0.00 | 0.30 | 0.00 | 89 | 1012.7 |
| 20260510114304 | 11 | 280 | 0.0 | 1.6 | 0.00 | 0.30 | 0.00 | 89 | 1012.8 |
| 20260510113805 | 11 | 280 | 0.0 | 1.6 | 0.00 | 0.30 | 0.00 | 89 | 1012.7 |
| 20260510113304 | 11 | 280 | 0.0 | 1.6 | 0.00 | 0.30 | 0.00 | 89 | 1012.6 |
| 20260510112804 | 11 | 280 | 0.0 | 0.0 | 0.00 | 0.30 | 0.00 | 89 | 1012.6 |
| 20260510112306 | 11 | 280 | 0.0 | 1.6 | 0.00 | 0.30 | 0.00 | 89 | 1012.7 |
| 20260510111805 | 11 | 280 | 0.0 | 1.6 | 0.00 | 0.30 | 0.00 | 89 | 1012.6 |
| 20260510111304 | 11 | 280 | 0.0 | 1.6 | 0.00 | 0.30 | 0.00 | 89 | 1012.6 |
| 20260510110805 | 11 | 280 | 0.0 | 1.6 | 0.00 | 0.30 | 0.00 | 89 | 1012.5 |
| 20260510110304 | 11 | 279 | 0.0 | 1.6 | 0.00 | 0.30 | 0.00 | 89 | 1012.4 |
| 20260510105804 | 11 | 279 | 0.0 | 0.0 | 0.00 | 0.30 | 0.00 | 89 | 1012.3 |
| 20260510105306 | 10 | 279 | 0.0 | 0.0 | 0.00 | 0.30 | 0.00 | 89 | 1012.3 |
| 20260510104805 | 10 | 279 | 0.0 | 0.0 | 0.00 | 0.30 | 0.00 | 89 | 1012.3 |
| 20260510103804 | 10 | 279 | 0.0 | 0.0 | 0.00 | 0.30 | 0.00 | 89 | 1012.2 |
| 20260510103305 | 10 | 279 | 0.0 | 3.2 | 0.00 | 0.30 | 0.00 | 89 | 1012.3 |
| 20260510101805 | 10 | 279 | 0.0 | 1.6 | 0.00 | 0.30 | 0.00 | 89 | 1011.9 |
| 20260510101305 | 10 | 279 | 0.0 | 1.6 | 0.00 | 0.30 | 0.00 | 89 | 1012.0 |
| 20260510100804 | 10 | 279 | 0.0 | 1.6 | 0.00 | 0.30 | 0.00 | 89 | 1012.0 |
| 20260510095804 | 10 | 280 | 0.0 | 0.0 | 0.00 | 0.30 | 0.00 | 89 | 1012.0 |
| 20260510094804 | 10 | 280 | 0.0 | 1.6 | 0.00 | 0.30 | 0.00 | 89 | 1012.0 |
| 20260510094304 | 10 | 280 | 0.0 | 1.6 | 0.00 | 0.30 | 0.00 | 89 | 1012.0 |
| 20260510093805 | 10 | 279 | 0.0 | 4.8 | 0.00 | 0.30 | 0.00 | 89 | 1012.0 |
| 20260510093304 | 10 | 301 | 0.0 | 3.2 | 0.00 | 0.30 | 0.00 | 89 | 1011.9 |
| 20260510092804 | 10 | 302 | 0.0 | 1.6 | 0.00 | 0.30 | 0.00 | 89 | 1012.0 |
| 20260510092306 | 10 | 302 | 0.0 | 1.6 | 0.00 | 0.30 | 0.00 | 89 | 1011.9 |
| 20260510090804 | 10 | 300 | 0.0 | 3.2 | 0.00 | 0.30 | 0.00 | 89 | 1011.7 |
| 20260510090304 | 9 | 300 | 1.6 | 4.8 | 0.00 | 0.30 | 0.00 | 89 | 1011.7 |
| 20260510085804 | 9 | 309 | 1.6 | 3.2 | 0.00 | 0.30 | 0.00 | 89 | 1011.9 |
| 20260510085306 | 9 | 311 | 1.6 | 8.0 | 0.00 | 0.30 | 0.00 | 89 | 1011.7 |
| 20260510084804 | 9 | 19 | 1.6 | 4.8 | 0.00 | 0.30 | 0.00 | 89 | 1011.5 |
| 20260510084305 | 9 | 311 | 3.2 | 4.8 | 0.00 | 0.30 | 0.00 | 89 | 1011.5 |
| 20260510083804 | 9 | 311 | 0.0 | 0.0 | 0.00 | 0.30 | 0.00 | 89 | 1011.2 |
| 20260510083304 | 9 | 311 | 0.0 | 0.0 | 0.00 | 0.30 | 0.00 | 89 | 1011.2 |
| 20260510082804 | 9 | 311 | 0.0 | 0.0 | 0.00 | 0.30 | 0.00 | 89 | 1011.2 |
| 20260510081806 | 10 | 311 | 0.0 | 0.0 | 0.00 | 0.30 | 0.00 | 89 | 1011.2 |
| 20260510081304 | 10 | 311 | 0.0 | 0.0 | 0.00 | 0.30 | 0.00 | 89 | 1011.2 |
| 20260510080805 | 10 | 311 | 0.0 | 0.0 | 0.00 | 0.30 | 0.00 | 89 | 1011.2 |
| 20260510080304 | 10 | 311 | 0.0 | 0.0 | 0.00 | 0.30 | 0.00 | 89 | 1011.2 |
| 20260510075306 | 10 | 311 | 0.0 | 0.0 | 0.00 | 0.30 | 0.00 | 89 | 1011.2 |
| 20260510074805 | 10 | 311 | 0.0 | 0.0 | 0.00 | 0.30 | 0.00 | 89 | 1011.2 |
| 20260510074305 | 10 | 311 | 0.0 | 0.0 | 0.00 | 0.30 | 0.00 | 89 | 1011.2 |
| 20260510073304 | 10 | 311 | 0.0 | 0.0 | 0.00 | 0.30 | 0.00 | 88 | 1011.1 |
| 20260510072804 | 10 | 311 | 0.0 | 0.0 | 0.00 | 0.30 | 0.00 | 88 | 1011.1 |
| 20260510072306 | 10 | 311 | 0.0 | 0.0 | 0.00 | 0.30 | 0.00 | 88 | 1011.0 |
| 20260510071804 | 10 | 311 | 0.0 | 0.0 | 0.00 | 0.30 | 0.00 | 88 | 1010.9 |
| 20260510071304 | 10 | 311 | 0.0 | 1.6 | 0.00 | 0.30 | 0.00 | 88 | 1010.9 |
| 20260510070804 | 10 | 311 | 0.0 | 3.2 | 0.00 | 0.30 | 0.00 | 88 | 1011.0 |
| 20260510070304 | 10 | 317 | 1.6 | 4.8 | 0.00 | 0.30 | 0.00 | 89 | 1010.9 |
| 20260510065804 | 10 | 331 | 0.0 | 4.8 | 0.00 | 0.30 | 0.00 | 88 | 1010.7 |
| 20260510065306 | 10 | 40 | 0.0 | 0.0 | 0.00 | 0.30 | 0.00 | 88 | 1010.6 |
| 20260510064804 | 10 | 40 | 0.0 | 0.0 | 0.00 | 0.30 | 0.00 | 88 | 1010.5 |
| 20260510064304 | 10 | 40 | 0.0 | 0.0 | 0.00 | 0.30 | 0.00 | 88 | 1010.4 |
| 20260510063804 | 10 | 40 | 0.0 | 0.0 | 0.00 | 0.30 | 0.00 | 88 | 1010.5 |
| 20260510063304 | 10 | 40 | 0.0 | 0.0 | 0.00 | 0.30 | 0.00 | 88 | 1010.5 |
| 20260510062804 | 10 | 40 | 0.0 | 0.0 | 0.00 | 0.30 | 0.00 | 88 | 1010.5 |
| 20260510062306 | 10 | 40 | 0.0 | 0.0 | 0.00 | 0.30 | 0.00 | 88 | 1010.6 |
| 20260510061304 | 10 | 40 | 0.0 | 0.0 | 0.00 | 0.30 | 0.00 | 89 | 1010.7 |
| 20260510060805 | 10 | 40 | 0.0 | 0.0 | 0.00 | 0.30 | 0.00 | 88 | 1010.7 |
| 20260510060304 | 10 | 40 | 0.0 | 0.0 | 0.00 | 0.30 | 0.00 | 88 | 1010.8 |
| 20260510055804 | 10 | 40 | 0.0 | 0.0 | 0.00 | 0.30 | 0.00 | 88 | 1010.8 |
| 20260510055306 | 10 | 40 | 0.0 | 0.0 | 0.00 | 0.30 | 0.00 | 88 | 1010.9 |
| 20260510054805 | 10 | 40 | 0.0 | 0.0 | 0.00 | 0.30 | 0.00 | 88 | 1010.9 |
| 20260510054305 | 10 | 40 | 0.0 | 0.0 | 0.00 | 0.30 | 0.00 | 88 | 1010.9 |
| 20260510053804 | 10 | 40 | 0.0 | 0.0 | 0.00 | 0.30 | 0.00 | 88 | 1010.9 |
| 20260510053304 | 10 | 40 | 0.0 | 0.0 | 0.00 | 0.30 | 0.00 | 88 | 1011.0 |
| 20260510052804 | 10 | 40 | 0.0 | 0.0 | 0.00 | 0.30 | 0.00 | 88 | 1011.0 |
| 20260510051803 | 10 | 40 | 0.0 | 0.0 | 0.00 | 0.30 | 0.00 | 88 | 1011.0 |
| 20260510051303 | 10 | 40 | 0.0 | 0.0 | 0.00 | 0.30 | 0.00 | 88 | 1011.0 |
| 20260510050804 | 10 | 40 | 0.0 | 0.0 | 0.00 | 0.30 | 0.00 | 88 | 1011.0 |
| 20260510050304 | 10 | 40 | 0.0 | 0.0 | 0.00 | 0.30 | 0.00 | 88 | 1011.1 |
| 20260510045804 | 10 | 40 | 0.0 | 0.0 | 0.00 | 0.30 | 0.00 | 88 | 1011.1 |
| 20260510045306 | 10 | 40 | 0.0 | 0.0 | 0.00 | 0.30 | 0.00 | 88 | 1011.1 |
| 20260510044804 | 10 | 40 | 0.0 | 0.0 | 0.00 | 0.30 | 0.00 | 88 | 1011.2 |
| 20260510044304 | 10 | 40 | 0.0 | 0.0 | 0.00 | 0.30 | 0.00 | 88 | 1011.2 |
| 20260510042804 | 10 | 40 | 0.0 | 0.0 | 0.00 | 0.30 | 0.00 | 88 | 1011.3 |
| 20260510042306 | 9 | 40 | 0.0 | 0.0 | 0.00 | 0.30 | 0.00 | 88 | 1011.3 |
| 20260510041804 | 9 | 40 | 0.0 | 0.0 | 0.00 | 0.30 | 0.00 | 88 | 1011.3 |
| 20260510041304 | 9 | 40 | 0.0 | 0.0 | 0.00 | 0.30 | 0.00 | 88 | 1011.4 |
| 20260510040904 | 9 | 40 | 0.0 | 0.0 | 0.00 | 0.30 | 0.00 | 88 | 1011.3 |
| 20260510040304 | 10 | 40 | 0.0 | 0.0 | 0.00 | 0.30 | 0.00 | 88 | 1011.3 |
| 20260510035804 | 10 | 40 | 0.0 | 0.0 | 0.00 | 0.30 | 0.30 | 88 | 1011.3 |
| 20260510035306 | 10 | 40 | 0.0 | 0.0 | 0.00 | 0.30 | 0.30 | 88 | 1011.2 |
| 20260510034804 | 10 | 40 | 0.0 | 0.0 | 0.00 | 0.30 | 0.30 | 88 | 1011.1 |
| 20260510033804 | 10 | 40 | 0.0 | 0.0 | 0.00 | 0.30 | 0.30 | 88 | 1011.1 |
| 20260510033304 | 10 | 40 | 0.0 | 0.0 | 0.00 | 0.30 | 0.30 | 88 | 1011.1 |
| 20260510032806 | 10 | 40 | 0.0 | 0.0 | 0.00 | 0.30 | 0.30 | 88 | 1011.0 |
| 20260510032306 | 10 | 40 | 0.0 | 0.0 | 0.00 | 0.30 | 0.30 | 88 | 1010.9 |
| 20260510031804 | 10 | 40 | 0.0 | 0.0 | 0.00 | 0.30 | 0.30 | 88 | 1010.9 |
| 20260510030804 | 10 | 40 | 0.0 | 0.0 | 0.00 | 0.30 | 0.30 | 88 | 1010.9 |
| 20260510030304 | 10 | 40 | 0.0 | 0.0 | 0.00 | 0.30 | 0.30 | 88 | 1010.9 |
| 20260510025806 | 10 | 40 | 0.0 | 0.0 | 0.00 | 0.30 | 0.30 | 88 | 1010.9 |
| 20260510025306 | 10 | 40 | 0.0 | 0.0 | 0.00 | 0.30 | 0.30 | 88 | 1010.9 |
| 20260510024805 | 10 | 40 | 0.0 | 0.0 | 0.00 | 0.30 | 0.30 | 88 | 1010.9 |
| 20260510023804 | 10 | 40 | 0.0 | 0.0 | 0.00 | 0.30 | 0.30 | 88 | 1010.8 |
| 20260510023304 | 10 | 40 | 0.0 | 0.0 | 0.00 | 0.30 | 0.30 | 88 | 1010.8 |
| 20260510022806 | 10 | 40 | 0.0 | 0.0 | 0.00 | 0.30 | 0.30 | 88 | 1010.8 |
| 20260510022306 | 10 | 40 | 0.0 | 0.0 | 0.00 | 0.30 | 0.30 | 87 | 1010.8 |
| 20260510021806 | 10 | 40 | 0.0 | 0.0 | 0.00 | 0.30 | 0.30 | 87 | 1010.7 |
| 20260510021304 | 10 | 40 | 0.0 | 0.0 | 0.00 | 0.30 | 0.30 | 88 | 1010.7 |
| 20260510020804 | 11 | 40 | 0.0 | 0.0 | 0.00 | 0.30 | 0.30 | 88 | 1010.7 |
| 20260510015804 | 11 | 40 | 0.0 | 0.0 | 0.00 | 0.30 | 0.30 | 87 | 1010.6 |
| 20260510015306 | 11 | 40 | 0.0 | 0.0 | 0.00 | 0.30 | 0.30 | 87 | 1010.7 |
| 20260510014804 | 11 | 40 | 0.0 | 0.0 | 0.00 | 0.30 | 0.30 | 87 | 1010.7 |
| 20260510013804 | 11 | 40 | 0.0 | 0.0 | 0.00 | 0.30 | 0.30 | 87 | 1010.8 |
| 20260510012306 | 11 | 40 | 0.0 | 0.0 | 0.00 | 0.30 | 0.30 | 87 | 1010.8 |
| 20260510011804 | 11 | 40 | 0.0 | 0.0 | 0.00 | 0.30 | 0.30 | 87 | 1010.8 |
| 20260510011305 | 11 | 40 | 0.0 | 0.0 | 0.00 | 0.30 | 0.30 | 87 | 1010.6 |
| 20260510010804 | 11 | 40 | 0.0 | 0.0 | 0.00 | 0.30 | 0.30 | 87 | 1010.5 |
| 20260510010304 | 11 | 40 | 0.0 | 0.0 | 0.00 | 0.30 | 0.30 | 87 | 1010.5 |
| 20260510005306 | 12 | 40 | 0.0 | 0.0 | 0.00 | 0.30 | 0.30 | 87 | 1010.3 |
| 20260510004804 | 12 | 40 | 0.0 | 0.0 | 0.00 | 0.30 | 0.30 | 87 | 1010.4 |
| 20260510004304 | 12 | 40 | 0.0 | 0.0 | 0.00 | 0.30 | 0.30 | 87 | 1010.4 |
| 20260510003804 | 12 | 40 | 0.0 | 0.0 | 0.00 | 0.30 | 0.30 | 86 | 1010.4 |
| 20260510003304 | 12 | 40 | 0.0 | 0.0 | 0.00 | 0.30 | 0.30 | 86 | 1010.3 |
| 20260510002804 | 12 | 40 | 0.0 | 0.0 | 0.00 | 0.30 | 0.30 | 86 | 1010.3 |
| 20260510002306 | 12 | 40 | 0.0 | 0.0 | 0.00 | 0.30 | 0.30 | 86 | 1010.2 |
| 20260510001804 | 12 | 40 | 0.0 | 0.0 | 0.00 | 0.30 | 0.30 | 86 | 1010.3 |
| 20260510000804 | 13 | 40 | 0.0 | 0.0 | 0.00 | 0.30 | 0.30 | 86 | 1010.2 |
| 20260510000305 | 13 | 40 | 0.0 | 0.0 | 0.00 | 0.30 | 0.30 | 86 | 1010.3 |
| 20260509235804 | 13 | 40 | 0.0 | 0.0 | 0.00 | 0.30 | 0.30 | 86 | 1010.3 |
| 20260509235306 | 13 | 40 | 0.0 | 0.0 | 0.00 | 0.30 | 0.30 | 86 | 1010.3 |
| 20260509234804 | 13 | 40 | 0.0 | 0.0 | 0.00 | 0.30 | 0.30 | 86 | 1010.2 |
| 20260509234304 | 13 | 40 | 0.0 | 0.0 | 0.00 | 0.30 | 0.30 | 86 | 1010.3 |
| 20260509233806 | 13 | 40 | 0.0 | 0.0 | 0.00 | 0.30 | 0.30 | 86 | 1010.3 |
| 20260509233305 | 13 | 40 | 0.0 | 0.0 | 0.00 | 0.30 | 0.30 | 86 | 1010.2 |
| 20260509232804 | 14 | 40 | 0.0 | 1.6 | 0.00 | 0.30 | 0.30 | 86 | 1010.1 |
| 20260509232306 | 14 | 40 | 0.0 | 0.0 | 0.00 | 0.30 | 0.30 | 86 | 1010.1 |
| 20260509231305 | 14 | 40 | 0.0 | 1.6 | 0.00 | 0.30 | 0.30 | 86 | 1010.0 |
| 20260509230804 | 14 | 40 | 0.0 | 3.2 | 0.00 | 0.30 | 0.30 | 87 | 1010.1 |
| 20260509230303 | 14 | 67 | 0.0 | 3.2 | 0.00 | 0.30 | 0.30 | 87 | 1010.0 |
| 20260509225805 | 14 | 98 | 0.0 | 3.2 | 0.00 | 0.30 | 0.30 | 87 | 1010.0 |
| 20260509225306 | 14 | 123 | 0.0 | 1.6 | 0.00 | 0.30 | 0.30 | 86 | 1010.0 |
| 20260509224805 | 14 | 123 | 0.0 | 1.6 | 0.00 | 0.30 | 0.30 | 86 | 1009.9 |
| 20260509223304 | 14 | 149 | 0.0 | 4.8 | 0.00 | 0.30 | 0.30 | 86 | 1010.0 |
| 20260509222804 | 14 | 169 | 0.0 | 1.6 | 0.05 | 0.30 | 0.30 | 86 | 1010.1 |
| 20260509222307 | 14 | 20 | 0.0 | 3.2 | 0.13 | 0.30 | 0.30 | 86 | 1010.1 |
| 20260509221804 | 14 | 17 | 0.0 | 0.0 | 0.20 | 0.30 | 0.30 | 86 | 1010.2 |
| 20260509220805 | 15 | 13 | 0.0 | 3.2 | 0.30 | 0.30 | 0.30 | 85 | 1010.4 |
| 20260509215804 | 15 | 309 | 0.0 | 1.6 | 0.30 | 0.30 | 0.30 | 86 | 1010.3 |
| 20260509215306 | 15 | 309 | 0.0 | 1.6 | 0.30 | 0.30 | 0.30 | 85 | 1010.5 |
| 20260509214804 | 15 | 309 | 0.0 | 0.0 | 0.30 | 0.30 | 0.30 | 85 | 1010.6 |
| 20260509214304 | 15 | 309 | 0.0 | 0.0 | 0.30 | 0.30 | 0.30 | 84 | 1010.8 |
| 20260509213804 | 15 | 309 | 0.0 | 0.0 | 0.30 | 0.30 | 0.30 | 83 | 1010.8 |
| 20260509213304 | 15 | 309 | 0.0 | 1.6 | 0.30 | 0.30 | 0.30 | 83 | 1010.8 |
| 20260509212804 | 15 | 309 | 0.0 | 3.2 | 0.25 | 0.25 | 0.25 | 82 | 1010.7 |
| 20260509212306 | 15 | 309 | 0.0 | 1.6 | 0.18 | 0.18 | 0.18 | 81 | 1010.6 |
| 20260509211804 | 15 | 309 | 0.0 | 1.6 | 0.10 | 0.10 | 0.10 | 79 | 1010.9 |
| 20260509211305 | 15 | 309 | 0.0 | 1.6 | 0.00 | 0.00 | 0.00 | 78 | 1011.0 |
| 20260509210804 | 15 | 309 | 0.0 | 0.0 | 0.00 | 0.00 | 0.00 | 78 | 1010.6 |
| 20260509210304 | 15 | 309 | 0.0 | 3.2 | 0.00 | 0.00 | 0.00 | 77 | 1010.6 |
| 20260509205804 | 15 | 311 | 0.0 | 3.2 | 0.00 | 0.00 | 0.00 | 77 | 1010.6 |
| 20260509205307 | 16 | 310 | 1.6 | 4.8 | 0.00 | 0.00 | 0.00 | 77 | 1010.5 |
| 20260509204804 | 16 | 320 | 1.6 | 4.8 | 0.00 | 0.00 | 0.00 | 77 | 1010.4 |
| 20260509204304 | 16 | 308 | 1.6 | 8.0 | 0.00 | 0.00 | 0.00 | 77 | 1010.4 |
| 20260509203804 | 16 | 312 | 1.6 | 3.2 | 0.00 | 0.00 | 0.00 | 78 | 1010.0 |
| 20260509203304 | 16 | 313 | 0.0 | 3.2 | 0.00 | 0.00 | 0.00 | 77 | 1010.0 |
| 20260509202805 | 16 | 325 | 3.2 | 12.9 | 0.00 | 0.00 | 0.00 | 75 | 1010.2 |
| 20260509202306 | 16 | 317 | 4.8 | 11.3 | 0.00 | 0.00 | 0.00 | 75 | 1010.3 |
| 20260509201305 | 16 | 304 | 1.6 | 8.0 | 0.00 | 0.00 | 0.00 | 78 | 1010.3 |
| 20260509200804 | 16 | 287 | 3.2 | 8.0 | 0.00 | 0.00 | 0.00 | 77 | 1010.2 |
| 20260509200304 | 16 | 298 | 3.2 | 4.8 | 0.00 | 0.00 | 0.00 | 78 | 1010.3 |
| 20260509195804 | 16 | 306 | 3.2 | 8.0 | 0.00 | 0.00 | 0.00 | 77 | 1010.0 |
| 20260509195306 | 16 | 326 | 3.2 | 12.9 | 0.00 | 0.00 | 0.00 | 76 | 1010.1 |
| 20260509194804 | 16 | 271 | 3.2 | 8.0 | 0.00 | 0.00 | 0.00 | 75 | 1010.2 |
| 20260509194305 | 16 | 275 | 1.6 | 12.9 | 0.00 | 0.00 | 0.00 | 76 | 1010.3 |